Location: PSU-Greenbush Astrophysical Observatory
(37.5140°N, 94.9880°W)
Time: 13:04:00
(UTC-06:00)

deb Explorer IX - Pass Details

Date: 24 January 2020
Orbit: 549 x 1099 km, 38.8° (Epoch: 17 February)

Event Time Altitude Azimuth Distance (km) Brightness Sun altitude
Rises 04:00:19 0° 285° (WNW) 3,865 - -41.4°
Reaches altitude 10° 04:03:20 10° 278° (W) 2,864 - -40.8°
Maximum altitude 04:09:41 38° 213° (SSW) 1,441 - -39.5°
Exits shadow 04:14:44 13° 149° (SSE) 2,358 ? -38.5°
Drops below altitude 10° 04:15:21 10° 146° (SSE) 2,548 ? -38.4°
Sets 04:17:54 0° 139° (SE) 3,397 ? -37.9°
